Wind_Speed
37 37 36 35 34 33 32 31 30 30 30 29 29 29 28 28 28 28 27 27 27 27 27 28 28 28 29 29 29 30 31 31 31 32 32 32 32 32 33 34 34 34 33
38 37 37 36 35 34 33 32 32 31 30 30 30 30 29 29 29 29 29 28 28 28 28 28 29 29 30 30 30 31 31 32 32 33 33 33 33 34 34 35 35 34 34
38 38 38 38 37 36 35 34 33 32 32 32 31 31 30 30 29 30 30 29 29 30 30 30 30 30 31 31 31 32 32 33 33 33 34 35 35 35 35 36 35 35 35
40 39 38 37 36 35 34 34 33 33 32 32 32 31 31 31 31 31 31 31 31 31 31 31 31 31 32 33 32 33 33 33 34 34 35 36 37 37 37 37 36 36 36
41 40 38 37 36 35 35 35 34 34 34 33 33 32 32 32 31 32 32 32 32 32 32 32 32 33 33 34 34 34 34 34 35 35 36 37 38 38 38 38 37 37 38
42 42 39 37 37 36 36 35 35 35 34 33 33 32 32 32 32 32 32 33 32 33 33 34 34 34 34 35 35 35 35 35 35 36 37 38 39 39 39 39 39 38 39
42 42 41 38 37 38 37 36 35 35 34 34 34 33 33 33 33 33 33 33 33 34 34 35 35 35 35 36 36 36 36 36 37 37 38 39 40 39 39 39 39 39 40
43 43 42 41 39 37 37 37 37 36 35 35 35 35 35 34 34 34 34 33 34 35 35 36 36 36 37 37 37 37 37 38 38 39 39 41 40 40 40 40 40 40 40
44 43 42 42 41 39 38 37 37 37 36 37 37 37 37 36 35 35 35 35 35 35 36 37 37 37 38 38 38 38 38 39 40 40 40 41 40 40 41 41 41 41 41
46 45 44 42 42 41 38 37 38 38 37 37 38 38 38 38 37 36 36 37 37 37 37 38 38 38 38 38 38 39 39 40 40 40 41 41 41 41 41 42 41 42 42
46 45 45 44 42 41 40 39 37 37 37 37 38 38 38 38 38 38 37 37 38 38 38 38 39 39 39 39 39 39 40 41 41 41 41 41 42 42 42 41 41 42 43
47 45 45 45 44 42 41 40 39 39 39 38 38 38 38 38 38 38 38 38 39 38 39 39 38 39 39 39 40 40 40 41 41 41 41 42 42 42 42 42 42 43 44
47 46 47 46 46 44 43 42 40 40 39 38 38 37 37 37 38 39 39 39 39 39 39 38 38 38 38 39 40 40 41 41 41 42 42 42 43 43 43 43 44 45 46
46 46 46 46 46 45 43 42 41 40 40 38 37 37 37 37 38 38 38 39 39 38 38 37 38 38 39 40 40 40 41 41 42 42 42 43 43 44 44 44 45 46 46
46 45 45 47 47 46 44 42 40 40 40 39 38 37 36 37 38 38 39 40 39 38 37 37 38 38 39 39 40 40 41 41 41 42 43 43 44 45 45 44 45 45 45
46 46 45 45 46 45 45 43 42 41 40 40 38 36 35 36 36 37 38 38 37 37 36 37 38 38 38 38 39 40 40 41 42 42 43 45 45 44 43 43 45 44 43
44 45 43 44 44 44 43 44 44 43 42 42 40 39 38 37 36 36 36 36 37 38 38 37 37 37 37 38 39 39 40 40 41 42 43 43 43 42 42 43 43 42 42
43 44 45 43 43 43 43 43 43 42 43 42 42 41 39 39 37 35 35 36 36 37 37 37 37 37 37 38 38 39 39 40 40 41 41 41 40 40 41 41 40 40 41
43 43 44 44 43 43 43 43 42 41 41 41 41 40 40 39 38 36 36 36 37 37 37 37 37 37 37 37 38 38 38 39 39 40 39 38 38 39 39 40 39 40 40
43 42 42 43 43 43 44 44 43 41 40 40 40 40 39 39 38 37 38 38 38 37 37 36 36 36 36 36 37 37 37 37 38 37 37 37 37 37 38 39 39 39 39
42 42 42 42 42 42 43 43 43 41 41 41 40 39 39 38 38 38 39 39 39 38 37 37 36 36 35 35 36 36 36 37 37 36 36 36 36 37 37 38 37 37 38
40 41 41 40 39 39 40 41 41 41 41 40 40 40 39 39 38 38 38 40 40 39 39 38 37 36 35 35 35 36 37 37 36 36 36 35 35 36 36 37 37 37 37
37 38 37 37 37 37 38 39 39 39 40 40 40 40 39 39 39 39 38 39 39 39 38 38 36 36 35 35 36 36 37 37 36 35 35 35 35 35 36 36 36 35 35
35 35 35 37 37 37 37 38 38 39 39 39 38 38 38 38 39 38 38 37 37 37 36 36 36 36 36 36 35 36 36 35 34 34 34 34 34 34 34 35 35 34 33
33 34 35 36 37 37 36 36 36 37 38 38 38 37 35 35 36 37 36 36 35 35 36 35 35 35 35 34 34 34 33 32 32 32 33 33 33 33 33 33 33 32 31
33 33 34 34 35 36 35 34 35 35 36 37 36 36 34 34 34 34 35 36 35 34 34 34 33 33 32 32 32 32 31 31 31 32 32 32 32 31 30 30 30 29 29
Wind_Direction
252 254 255 256 258 259 260 260 261 261 261 260 260 260 261 262 264 267 269 272 275 278 282 285 287 290 292 294 295 295 295 297 297 298 299 299 300 301 301 301 299 298 298
250 252 253 255 256 257 258 259 259 260 261 261 260 259 260 262 264 266 268 270 273 276 280 284 287 290 292 292 293 295 296 297 298 298 298 299 300 300 301 300 299 298 297
250 252 254 253 254 255 255 256 259 260 261 260 258 259 261 262 263 265 267 269 272 275 278 281 285 289 291 292 292 294 295 297 298 298 298 298 299 300 300 300 299 297 296
249 251 252 253 252 253 253 255 258 260 260 260 259 259 260 262 262 265 267 269 271 274 277 280 284 287 289 291 292 293 295 297 297 298 298 298 299 299 299 299 298 297 297
248 249 251 252 252 253 253 255 257 258 259 259 259 260 261 263 264 266 267 269 271 275 277 280 283 286 288 290 292 293 295 297 297 298 298 298 299 299 298 298 298 297 297
248 248 250 252 252 253 254 255 256 259 259 258 258 261 263 263 263 266 267 269 272 275 278 280 283 285 287 289 291 293 295 296 297 298 299 299 299 298 298 298 298 298 297
246 246 248 250 250 251 252 254 256 258 258 257 258 259 262 264 264 265 267 269 271 275 278 280 283 286 288 288 290 292 293 294 297 298 299 300 300 299 298 298 298 298 298
244 245 247 248 249 250 252 255 255 255 256 256 258 260 262 262 263 266 267 267 270 274 278 281 283 285 287 288 289 291 292 294 296 298 300 301 301 300 299 298 298 298 298
244 244 246 248 250 251 254 254 255 254 254 255 257 260 262 263 264 266 267 268 271 274 277 280 283 285 286 288 290 290 291 293 296 298 300 301 301 300 300 299 298 298 298
244 245 246 249 250 253 254 254 255 254 254 255 257 259 262 264 266 267 269 270 272 274 277 279 282 283 285 287 289 290 291 293 295 297 298 299 300 301 301 300 299 299 299
245 245 247 249 250 252 253 254 255 255 255 257 259 260 262 265 267 268 269 271 272 274 278 280 281 282 284 286 288 290 292 293 295 296 297 298 300 300 301 300 299 300 299
245 246 248 247 249 252 254 256 257 257 257 257 258 260 262 265 267 268 269 271 272 275 278 280 281 283 284 285 288 290 292 293 295 295 296 297 299 300 300 300 300 300 301
245 246 247 247 249 250 253 255 257 256 257 257 257 259 263 265 266 268 270 271 273 275 276 278 280 282 283 285 287 289 291 293 295 295 295 296 298 298 299 299 299 300 301
244 247 248 248 248 251 253 254 255 255 255 256 258 259 262 264 266 268 270 272 274 274 275 276 279 281 283 285 287 289 291 293 294 295 295 297 298 298 298 298 299 300 301
245 247 248 248 249 249 250 251 252 253 252 255 257 257 261 264 267 270 272 273 273 274 275 277 279 281 283 285 287 289 291 293 294 295 296 298 299 299 299 299 300 300 301
246 246 247 249 249 248 249 249 251 251 253 254 256 258 261 263 266 271 272 272 274 276 278 279 280 282 284 285 288 290 291 293 295 296 298 299 300 299 299 299 301 302 302
246 246 247 247 247 248 249 250 251 251 254 255 256 259 261 263 267 269 269 270 273 277 279 281 283 283 283 285 287 290 292 294 296 299 300 301 300 300 300 301 302 302 302
246 246 246 246 246 247 248 250 250 253 255 255 256 259 261 263 265 266 267 269 273 277 278 280 283 283 284 285 288 291 292 295 298 300 301 301 301 301 301 302 302 302 304
247 247 247 247 246 247 248 249 250 253 254 254 254 257 259 261 262 265 267 269 273 277 279 281 283 285 286 287 290 292 293 295 299 301 301 300 301 302 302 303 303 304 305
247 247 246 247 247 247 248 250 250 251 251 253 254 257 259 261 262 264 267 270 273 276 279 282 283 285 287 289 291 292 293 296 298 299 299 300 301 302 304 305 305 305 306
247 246 246 247 247 247 248 250 251 251 252 252 254 256 259 261 263 264 266 269 271 274 278 281 283 285 287 289 290 291 293 296 297 298 299 300 301 303 304 306 306 306 308
248 247 246 245 246 247 248 250 251 251 251 251 252 256 260 261 264 266 267 269 271 273 277 279 282 284 287 289 290 291 294 295 296 297 299 300 302 303 304 305 307 308 310
247 246 244 244 246 248 248 249 251 251 251 251 252 255 260 262 263 266 268 270 271 274 276 278 281 283 286 288 290 292 294 296 296 297 298 300 301 302 304 306 308 309 310
244 244 247 245 247 249 250 250 250 251 251 251 253 255 258 260 261 265 268 271 272 273 276 278 281 284 286 288 290 292 293 294 296 296 297 299 300 302 303 306 308 309 310
244 246 247 247 248 250 252 251 249 249 249 250 252 255 258 259 260 264 266 269 271 273 276 279 282 284 286 288 290 291 292 293 294 296 298 299 300 301 303 306 309 309 311
245 245 245 247 250 251 250 249 249 248 248 249 251 254 257 259 260 262 265 268 270 273 275 278 281 283 284 287 290 291 292 292 293 295 296 297 298 300 302 306 308 309 311
Height
5801 5803 5804 5806 5807 5808 5809 5809 5810 5811 5812 5812 5813 5814 5815 5816 5816 5816 5816 5816 5816 5815 5814 5813 5812 5810 5809 5806 5804 5802 5800 5797 5795 5792 5790 5787 5784 5781 5778 5775 5771 5768 5765
5791 5793 5795 5797 5798 5800 5801 5802 5803 5804 5804 5806 5807 5808 5808 5809 5810 5810 5810 5810 5810 5809 5808 5807 5806 5804 5802 5800 5798 5796 5793 5791 5788 5786 5783 5780 5777 5774 5770 5767 5764 5761 5757
5782 5784 5785 5787 5789 5791 5792 5794 5795 5796 5797 5798 5800 5800 5801 5802 5803 5803 5803 5803 5803 5802 5802 5801 5799 5798 5796 5793 5791 5789 5786 5784 5781 5778 5776 5773 5769 5766 5763 5759 5756 5753 5749
5772 5774 5776 5778 5780 5782 5784 5786 5787 5789 5790 5791 5792 5793 5794 5795 5795 5796 5796 5796 5796 5795 5795 5794 5792 5791 5789 5786 5784 5782 5779 5777 5774 5771 5768 5765 5762 5758 5755 5751 5748 5745 5741
5763 5765 5767 5770 5772 5774 5776 5778 5779 5781 5782 5783 5785 5786 5787 5788 5788 5788 5789 5789 5789 5788 5787 5786 5785 5783 5781 5779 5777 5774 5771 5769 5766 5763 5760 5757 5754 5750 5746 5743 5739 5736 5733
5753 5756 5758 5760 5763 5765 5767 5769 5771 5773 5774 5776 5777 5779 5779 5780 5781 5781 5781 5781 5781 5781 5780 5779 5777 5776 5774 5771 5769 5766 5764 5761 5758 5755 5752 5748 5745 5741 5738 5734 5731 5727 5724
5743 5746 5749 5752 5754 5757 5759 5761 5763 5764 5766 5767 5769 5771 5771 5772 5773 5773 5774 5774 5774 5773 5772 5771 5769 5768 5766 5763 5761 5759 5756 5753 5750 5747 5743 5740 5736 5733 5729 5725 5722 5718 5714
5734 5737 5740 5743 5745 5748 5750 5752 5754 5756 5758 5759 5761 5763 5764 5765 5765 5766 5766 5766 5766 5765 5764 5763 5761 5760 5758 5755 5753 5750 5748 5745 5742 5738 5735 5731 5727 5724 5720 5716 5712 5709 5705
5725 5728 5731 5734 5736 5739 5741 5743 5745 5747 5749 5750 5752 5754 5755 5756 5758 5759 5758 5758 5758 5757 5756 5754 5753 5751 5749 5747 5745 5742 5739 5736 5733 5730 5726 5722 5718 5714 5711 5707 5703 5699 5695
5715 5719 5722 5725 5728 5730 5732 5734 5736 5738 5740 5742 5743 5745 5746 5748 5749 5750 5751 5750 5749 5749 5747 5746 5744 5742 5740 5738 5736 5733 5730 5727 5724 5721 5717 5713 5709 5705 5701 5697 5693 5688 5684
5705 5709 5712 5715 5718 5721 5723 5725 5727 5728 5731 5733 5734 5736 5737 5738 5739 5740 5742 5742 5741 5740 5738 5737 5735 5733 5731 5729 5726 5724 5721 5718 5715 5711 5708 5704 5700 5695 5691 5687 5683 5678 5674
5695 5699 5702 5706 5709 5711 5714 5716 5718 5720 5722 5723 5725 5726 5728 5729 5730 5731 5732 5732 5732 5731 5730 5727 5726 5724 5722 5719 5717 5714 5712 5708 5705 5702 5698 5694 5690 5686 5681 5677 5673 5668 5663
5685 5689 5692 5696 5699 5702 5704 5707 5709 5711 5713 5714 5716 5717 5719 5720 5721 5722 5722 5723 5723 5722 5721 5719 5716 5715 5712 5710 5708 5705 5702 5699 5695 5692 5688 5684 5680 5676 5671 5667 5662 5658 5653
5675 5679 5682 5685 5689 5692 5694 5697 5699 5701 5704 5705 5707 5709 5710 5711 5712 5712 5712 5713 5713 5712 5711 5710 5707 5705 5703 5701 5698 5696 5692 5689 5686 5682 5678 5674 5670 5665 5661 5656 5651 5646 5641
5665 5668 5672 5675 5678 5681 5684 5687 5689 5692 5694 5696 5698 5699 5701 5702 5703 5703 5703 5703 5703 5702 5702 5700 5698 5696 5694 5691 5689 5686 5683 5679 5676 5672 5668 5664 5659 5655 5650 5645 5640 5635 5630
5654 5658 5661 5664 5667 5671 5674 5677 5679 5682 5684 5686 5688 5689 5691 5693 5694 5694 5694 5693 5693 5692 5692 5692 5689 5687 5684 5681 5679 5676 5673 5669 5666 5662 5657 5653 5648 5644 5639 5634 5629 5624 5619
5644 5648 5651 5654 5657 5660 5663 5666 5669 5671 5674 5676 5678 5680 5682 5683 5684 5685 5684 5684 5684 5683 5683 5682 5679 5677 5674 5672 5669 5666 5663 5660 5656 5652 5647 5642 5638 5633 5629 5624 5619 5614 5609
5633 5637 5640 5643 5646 5650 5653 5656 5659 5662 5665 5667 5669 5671 5672 5674 5675 5675 5675 5675 5675 5674 5673 5672 5670 5667 5665 5663 5660 5658 5654 5651 5647 5642 5638 5633 5628 5624 5619 5614 5610 5605 5600
5623 5626 5630 5633 5637 5640 5643 5646 5649 5652 5655 5657 5659 5661 5663 5664 5666 5666 5666 5666 5665 5664 5664 5663 5661 5659 5656 5653 5651 5648 5645 5641 5637 5633 5629 5624 5620 5615 5610 5605 5600 5596 5590
5613 5617 5620 5624 5627 5631 5634 5637 5640 5642 5645 5648 5649 5651 5653 5655 5656 5656 5657 5657 5656 5655 5654 5653 5652 5650 5648 5644 5642 5639 5636 5632 5629 5625 5620 5616 5611 5607 5602 5597 5592 5587 5581
5604 5607 5610 5614 5617 5621 5624 5627 5630 5633 5635 5638 5640 5642 5644 5645 5646 5647 5647 5647 5647 5646 5645 5644 5643 5641 5639 5636 5634 5631 5628 5625 5621 5616 5613 5608 5604 5599 5594 5588 5583 5578 5573
5594 5598 5601 5605 5608 5611 5614 5617 5620 5623 5625 5628 5630 5633 5634 5636 5636 5637 5638 5638 5637 5637 5636 5635 5634 5632 5630 5628 5625 5622 5619 5616 5613 5610 5605 5601 5596 5591 5586 5581 5576 5571 5565
5585 5589 5592 5596 5599 5601 5605 5607 5610 5613 5616 5618 5621 5623 5625 5626 5627 5627 5628 5628 5628 5627 5627 5626 5625 5623 5621 5619 5617 5614 5610 5607 5604 5600 5597 5594 5589 5584 5579 5573 5569 5564 5558
5577 5580 5583 5586 5589 5592 5595 5598 5601 5604 5606 5609 5611 5613 5615 5616 5617 5618 5619 5619 5618 5618 5617 5617 5616 5614 5612 5610 5608 5605 5602 5599 5596 5592 5588 5585 5581 5577 5571 5566 5561 5557 5552
5568 5571 5575 5578 5580 5583 5586 5589 5592 5594 5597 5600 5602 5604 5606 5607 5608 5609 5610 5610 5610 5609 5608 5607 5606 5605 5603 5601 5598 5596 5593 5590 5588 5584 5580 5577 5573 5569 5565 5560 5554 5550 5545
5560 5563 5566 5569 5572 5575 5578 5580 5583 5586 5589 5591 5593 5595 5597 5598 5598 5599 5600 5601 5601 5600 5599 5598 5597 5596 5594 5592 5590 5587 5585 5582 5579 5577 5573 5569 5565 5562 5559 5554 5548 5544 5539